• En España
  • Lista de países
  • Para 7 días
  • Temperatura del agua
  • Mapa Satelital
  • El tiempo en el mapa
  • Informadores
  • user-avatar
    Iniciar sesión

    Tiempo cada hora Alcalá de Henares

    Hoy, 21 Octubre, Domingo

    Tiempo Temperatura Precipitaciones Viento Presión Humedad
    00:00 +15°C° 0.3 mm 4 mps 713 mmHg 81%
    01:00 +15°C° 0.2 mm 4 mps 713 mmHg 81%
    02:00 +15°C° 0.2 mm 4 mps 713 mmHg 81%
    03:00 +16°C° 0.2 mm 3 mps 713 mmHg 81%
    04:00 +16°C° 0.2 mm 3 mps 713 mmHg 81%
    05:00 +16°C° 0.2 mm 3 mps 713 mmHg 82%
    06:00 +16°C° 0 mm 3 mps 714 mmHg 79%
    07:00 +17°C° 0 mm 3 mps 714 mmHg 75%
    08:00 +18°C° 0 mm 3 mps 714 mmHg 71%
    09:00 +19°C° 0 mm 4 mps 714 mmHg 66%
    10:00 +20°C° 0 mm 3 mps 714 mmHg 61%
    11:00 +21°C° 0 mm 3 mps 714 mmHg 56%
    12:00 +22°C° 0 mm 3 mps 714 mmHg 50%
    13:00 +24°C° 0.3 mm 2 mps 713 mmHg 49%
    14:00 +24°C° 0.3 mm 2 mps 713 mmHg 48%
    15:00 +24°C° 0.3 mm 2 mps 713 mmHg 47%
    16:00 +23°C° 0.2 mm 2 mps 713 mmHg 52%
    17:00 +21°C° 0.2 mm 2 mps 713 mmHg 56%
    18:00 +20°C° 0.2 mm 2 mps 712 mmHg 61%
    19:00 +19°C° 0.1 mm 2 mps 713 mmHg 62%
    20:00 +19°C° 0.1 mm 2 mps 713 mmHg 64%
    21:00 +18°C° 0.1 mm 2 mps 713 mmHg 65%
    22:00 +18°C° 0.1 mm 2 mps 713 mmHg 67%
    23:00 +18°C° 0.1 mm 1 mps 713 mmHg 68%

    Mañana, 22 Octubre, Lunes

    Tiempo Temperatura Precipitaciones Viento Presión Humedad
    00:00 +18°C° 0.1 mm 1 mps 713 mmHg 70%
    01:00 +18°C° 0 mm 1 mps 713 mmHg 71%
    02:00 +16°C° 0 mm 1 mps 713 mmHg 72%
    03:00 +16°C° 0 mm 1 mps 713 mmHg 73%
    04:00 +16°C° 0 mm 1 mps 713 mmHg 73%
    05:00 +16°C° 0 mm 1 mps 713 mmHg 74%
    06:00 +15°C° 0 mm 1 mps 713 mmHg 75%
    07:00 +18°C° 0 mm 1 mps 714 mmHg 68%
    08:00 +18°C° 0 mm 2 mps 714 mmHg 62%
    09:00 +19°C° 0 mm 2 mps 714 mmHg 56%
    10:00 +21°C° 0 mm 2 mps 715 mmHg 48%
    11:00 +23°C° 0 mm 2 mps 715 mmHg 39%
    12:00 +24°C° 0 mm 3 mps 715 mmHg 30%
    13:00 +25°C° 0 mm 3 mps 714 mmHg 28%
    14:00 +25°C° 0 mm 3 mps 714 mmHg 26%
    15:00 +25°C° 0 mm 3 mps 714 mmHg 24%
    16:00 +24°C° 0 mm 3 mps 714 mmHg 28%
    17:00 +21°C° 0 mm 3 mps 714 mmHg 33%
    18:00 +20°C° 0 mm 3 mps 714 mmHg 37%
    19:00 +19°C° 0 mm 3 mps 715 mmHg 43%
    20:00 +18°C° 0 mm 4 mps 715 mmHg 48%
    21:00 +17°C° 0 mm 4 mps 716 mmHg 54%
    22:00 +15°C° 0 mm 4 mps 716 mmHg 57%
    23:00 +16°C° 0 mm 3 mps 716 mmHg 60%

    Pasado mañana, 23 Octubre, Martes

    Tiempo Temperatura Precipitaciones Viento Presión Humedad
    00:00 +16°C° 0 mm 3 mps 716 mmHg 63%
    01:00 +14°C° 0 mm 3 mps 716 mmHg 63%
    02:00 +15°C° 0 mm 2 mps 716 mmHg 63%
    03:00 +15°C° 0 mm 2 mps 716 mmHg 63%
    04:00 +14°C° 0 mm 2 mps 716 mmHg 63%
    05:00 +14°C° 0 mm 2 mps 716 mmHg 64%
    06:00 +13°C° 0 mm 3 mps 716 mmHg 64%
    07:00 +14°C° 0 mm 3 mps 716 mmHg 61%
    08:00 +16°C° 0 mm 2 mps 717 mmHg 57%
    09:00 +18°C° 0 mm 2 mps 717 mmHg 54%
    10:00 +19°C° 0 mm 2 mps 717 mmHg 51%
    11:00 +20°C° 0 mm 2 mps 717 mmHg 48%
    12:00 +23°C° 0 mm 1 mps 716 mmHg 45%
    13:00 +23°C° 0 mm 1 mps 716 mmHg 44%
    14:00 +23°C° 0 mm 1 mps 716 mmHg 42%
    15:00 +24°C° 0 mm 1 mps 715 mmHg 41%
    16:00 +23°C° 0 mm 1 mps 715 mmHg 44%
    17:00 +21°C° 0 mm 1 mps 715 mmHg 47%
    18:00 +20°C° 0 mm 1 mps 715 mmHg 50%
    19:00 +20°C° 0 mm 1 mps 716 mmHg 51%
    20:00 +18°C° 0 mm 2 mps 716 mmHg 52%
    21:00 +17°C° 0 mm 2 mps 716 mmHg 52%
    22:00 +17°C° 0 mm 2 mps 716 mmHg 53%
    23:00 +16°C° 0 mm 2 mps 716 mmHg 54%

    24 Octubre, Miércoles

    Tiempo Temperatura Precipitaciones Viento Presión Humedad
    00:00 +16°C° 0 mm 2 mps 716 mmHg 54%
    01:00 +15°C° 0 mm 2 mps 716 mmHg 56%
    02:00 +15°C° 0 mm 2 mps 716 mmHg 58%
    03:00 +15°C° 0 mm 2 mps 716 mmHg 60%
    04:00 +14°C° 0 mm 2 mps 716 mmHg 62%
    05:00 +14°C° 0 mm 2 mps 716 mmHg 64%
    06:00 +13°C° 0 mm 1 mps 716 mmHg 66%
    07:00 +15°C° 0 mm 1 mps 716 mmHg 62%
    08:00 +16°C° 0 mm 1 mps 716 mmHg 58%
    09:00 +18°C° 0 mm 1 mps 716 mmHg 54%
    10:00 +20°C° 0 mm 1 mps 716 mmHg 48%
    11:00 +21°C° 0 mm 1 mps 716 mmHg 42%
    12:00 +23°C° 0 mm 1 mps 716 mmHg 36%
    13:00 +23°C° 0 mm 1 mps 715 mmHg 33%
    14:00 +24°C° 0 mm 1 mps 714 mmHg 30%
    15:00 +24°C° 0 mm 1 mps 714 mmHg 28%
    16:00 +23°C° 0 mm 1 mps 714 mmHg 31%
    17:00 +21°C° 0 mm 1 mps 713 mmHg 34%
    18:00 +20°C° 0 mm 1 mps 713 mmHg 38%
    19:00 +19°C° 0 mm 1 mps 713 mmHg 39%
    20:00 +19°C° 0 mm 1 mps 713 mmHg 41%
    21:00 +16°C° 0 mm 0 mps 713 mmHg 42%
    22:00 +18°C° 0 mm 1 mps 713 mmHg 43%
    23:00 +16°C° 0 mm 1 mps 713 mmHg 43%

    25 Octubre, Jueves

    Tiempo Temperatura Precipitaciones Viento Presión Humedad
    00:00 +16°C° 0 mm 1 mps 713 mmHg 44%
    01:00 +15°C° 0 mm 1 mps 712 mmHg 45%
    02:00 +15°C° 0 mm 1 mps 712 mmHg 45%
    03:00 +15°C° 0 mm 1 mps 712 mmHg 46%
    04:00 +14°C° 0 mm 1 mps 712 mmHg 46%
    05:00 +14°C° 0 mm 1 mps 712 mmHg 46%
    06:00 +14°C° 0 mm 1 mps 712 mmHg 46%
    07:00 +15°C° 0 mm 1 mps 712 mmHg 42%
    08:00 +18°C° 0 mm 1 mps 712 mmHg 38%
    09:00 +20°C° 0 mm 1 mps 713 mmHg 34%
    10:00 +21°C° 0 mm 1 mps 712 mmHg 32%
    11:00 +22°C° 0 mm 1 mps 712 mmHg 31%
    12:00 +23°C° 0 mm 1 mps 712 mmHg 29%
    13:00 +24°C° 0 mm 2 mps 711 mmHg 29%
    14:00 +24°C° 0 mm 2 mps 711 mmHg 28%
    15:00 +24°C° 0 mm 2 mps 710 mmHg 28%
    16:00 +23°C° 0 mm 1 mps 710 mmHg 32%
    17:00 +21°C° 0 mm 1 mps 710 mmHg 36%
    18:00 +20°C° 0 mm 1 mps 710 mmHg 40%
    19:00 +19°C° 0 mm 1 mps 710 mmHg 41%
    20:00 +19°C° 0 mm 1 mps 710 mmHg 42%
    21:00 +18°C° 0 mm 1 mps 710 mmHg 43%
    22:00 +18°C° 0 mm 1 mps 710 mmHg 43%
    23:00 +18°C° 0 mm 1 mps 709 mmHg 44%

    26 Octubre, Viernes

    Tiempo Temperatura Precipitaciones Viento Presión Humedad
    00:00 +16°C° 0 mm 1 mps 709 mmHg 44%
    01:00 +16°C° 0 mm 1 mps 709 mmHg 45%
    02:00 +16°C° 0 mm 1 mps 709 mmHg 45%
    03:00 +16°C° 0 mm 1 mps 708 mmHg 46%
    04:00 +16°C° 0 mm 1 mps 708 mmHg 47%
    05:00 +15°C° 0 mm 1 mps 708 mmHg 48%
    06:00 +15°C° 0 mm 1 mps 708 mmHg 49%
    07:00 +16°C° 0 mm 1 mps 708 mmHg 46%
    08:00 +18°C° 0 mm 1 mps 708 mmHg 44%
    09:00 +19°C° 0 mm 1 mps 708 mmHg 42%
    10:00 +19°C° 0 mm 2 mps 708 mmHg 40%
    11:00 +21°C° 0 mm 3 mps 708 mmHg 37%
    12:00 +22°C° 0 mm 4 mps 708 mmHg 35%
    13:00 +22°C° 0 mm 4 mps 707 mmHg 36%
    14:00 +22°C° 0 mm 4 mps 707 mmHg 37%
    15:00 +21°C° 0 mm 4 mps 706 mmHg 38%
    16:00 +20°C° 0.1 mm 4 mps 706 mmHg 42%
    17:00 +19°C° 0.1 mm 3 mps 706 mmHg 46%
    18:00 +18°C° 0.1 mm 3 mps 705 mmHg 51%
    19:00 +18°C° 0.1 mm 3 mps 705 mmHg 55%
    20:00 +17°C° 0.1 mm 3 mps 705 mmHg 59%
    21:00 +17°C° 0.1 mm 3 mps 705 mmHg 63%
    22:00 +16°C° 0.3 mm 2 mps 705 mmHg 67%
    23:00 +16°C° 0.3 mm 2 mps 705 mmHg 70%
    Mostrar más